Home   Weather   Hofuf   Past weeks
Flag for Saudi Arabia

Past Weather in Hofuf, Saudi Arabia — Yesterday and Last 2 Weeks

Now
95 °F

Sunny.


Feels Like: 92 °F
Forecast: 100 / 78 °F
Wind: 13 mph from East

Location: Al Ahsa

Current Time: May 19, 2019 at 4:28:03 pm

Latest Report: May 19, 2019 at 4:00 pm


Visibility: 10 mi

Pressure: 29.71 "Hg

Humidity: 23%

Dew Point: 52 °F

Location of HofufLocation

Past Weather in Hofuf — Graph

°F

Hofuf Temperature Yesterday

Maximum temperature yesterday: 100 °F (at 11:00 am)
Minimum temperature yesterday: 84 °F (at 5:00 am)
Average temperature yesterday: 91 °F

High & Low Weather Summary for the Past Weeks

 TemperatureHumidityPressure
High108 °F (May 8, 3:00 pm)65% (May 6, 5:00 am)29.95 "Hg (May 6, 5:00 am)
Low75 °F (May 13, 2:00 am)6% (May 16, 2:00 pm)29.62 "Hg (May 8, 5:00 pm)
Average92 °F20%29.76 "Hg
* Reported May 4 3:00 pm — May 19 3:00 pm, Hofuf. Weather by CustomWeather, © 2019

Note: Actual official high and low records may vary slightly from our data, if they occured in-between our weather recording intervals... More about our weather records

Advertising

Hofuf Weather History for the Previous 24 Hours

Scroll right to see more
 ConditionsComfort  
Time TempWeatherWind HumidityBarometerVisibility
3:00 pm
Sun, May 19
97 °FSunny.17 mph22%29.71 "Hg10 mi
2:00 pm97 °FSunny.7 mph22%29.71 "Hg10 mi
1:00 pm95 °FSunny.17 mph23%29.74 "Hg10 mi
12:00 pm95 °FSunny.20 mph25%29.77 "Hg10 mi
11:00 am93 °FSunny.17 mph28%29.77 "Hg10 mi
10:00 am91 °FSunny.20 mph32%29.80 "Hg10 mi
9:00 am90 °FSunny.14 mph31%29.80 "Hg10 mi
8:00 am88 °FSunny.13 mph33%29.77 "Hg10 mi
7:00 am86 °FSunny.7 mph38%29.74 "Hg10 mi
6:00 am79 °FSunny.5 mph48%29.74 "Hg10 mi
5:00 am77 °FSunny.6 mph51%29.71 "Hg10 mi
4:00 am79 °FClear.7 mph51%29.68 "Hg10 mi
3:00 am81 °FPassing clouds.8 mph45%29.71 "HgN/A
2:00 am82 °FPassing clouds.15 mph40%29.71 "HgN/A
1:00 am86 °FPartly cloudy.22 mph31%29.68 "HgN/A
12:00 am86 °FThunderstorms. Partly cloudy.13 mph29%29.71 "HgN/A
11:00 pm
Sat, May 18
90 °FPassing clouds.10 mph24%29.71 "HgN/A
10:00 pm90 °FPassing clouds.14 mph21%29.68 "HgN/A
9:00 pm86 °FPassing clouds.12 mph31%29.71 "HgN/A
8:00 pm86 °FPassing clouds.17 mph31%29.68 "HgN/A
7:00 pm90 °FPartly cloudy.13 mph24%29.68 "HgN/A
6:00 pm91 °FBroken clouds.20 mph21%29.68 "Hg6 mi
5:00 pm93 °FBroken clouds.21 mph19%29.68 "Hg4 mi
4:00 pm93 °FMore clouds than sun.7 mph16%29.68 "HgN/A
Weather by CustomWeather, © 2019

See weather overview